Location: The Dilly Hill Observatory
(31.5262°N, 86.8310°W)
Time: 04:13:25
(UTC-06:00)

ISS - Pass Details

Date: 23 January 2018
Orbit: 402 x 407 km, 51.6° (Epoch: 24 February)

Event Time Altitude Azimuth Distance (km) Brightness Sun altitude
Rises 18:52:20 0° 234° (SW) 2,301 1.1 -20.9°
Reaches altitude 10° 18:54:26 10° 239° (WSW) 1,446 0.0 -21.4°
Enters shadow 18:57:23 50° 299° (WNW) 517 -3.1 -22.0°
